Regional Weather Roundup
Issued by NWS

Home | Current Version | Previous Version | Text Only | Print | Product List | Glossary Off
Versions: 1 2 3 4 5 6 7 8 9 10 11 12 13 14 15 16 17 18 19 20 21 22 23 24 25 26 27 28 29 30 31 32 33 34 35 36 37 38 39 40 41 42 43 44 45 46 47 48 49 50

000
ASUS45 KABQ 250610
RWRNM
WEATHER ROUNDUP FOR NEW MEXICO
NATIONAL WEATHER SERVICE ALBUQUERQUE NM
1200 AM MDT FRI APR 25 2014

NOTE: "FAIR" MEANS FEW OR NO CLOUDS BELOW 12,000 FEET AGL WITH NO
       SIGNIFICANT WEATHER OR OBSTRUCTIONS TO VISION.

      THIS PRODUCT IS RELEASED AS TWO VERSIONS.  ONE VERSION NEAR
      THE TOP OF THE HOUR CONTAINING PRELIMINARY DATA FROM ALBUQUERQUE
      AND OTHER STATIONS.  A FINAL VERSION WITH ADDITIONAL DATA IS
      ISSUED ABOUT 10 MINUTES AFTER THE HOUR.

NMZ501-503-504-510>518-250700-
NORTHWEST PLATEAU/NORTHCENTRAL MOUNTAINS

CITY           SKY/WX    TMP DP  RH WIND       PRES   REMARKS
FARMINGTON     CLEAR     38   4  24 NE7       30.01F WCI  33
6HR MIN TEMP:  38; 6HR MAX TEMP:  66;

LOS ALAMOS     CLEAR     50  -2  11 SW6       30.12S
SANTA FE       CLEAR     40  -2  17 NE9       30.06F WCI  34
6HR MIN TEMP:  39; 6HR MAX TEMP:  66;

TAOS           CLEAR     36  -9  14 CALM      30.12S
ANGEL FIRE     FAIR      36   1  22 S12       30.13S WCI  28

$$
NMZ402-403-502-505>509-250700-
WESTCENTRAL MOUNTAINS/SOUTHWEST MOUNTAINS

CITY           SKY/WX    TMP DP  RH WIND       PRES   REMARKS
GALLUP         CLEAR     37  -2  19 CALM      30.08S
6HR MIN TEMP:  37; 6HR MAX TEMP:  69;

GRANTS         CLEAR     44  -4  13 CALM      30.10S
SILVER CITY    CLEAR     50  14  23 NW8       30.07S

$$
NMZ407-409-411-412-250700-
SOUTHERN DESERTS

CITY           SKY/WX    TMP DP  RH WIND       PRES   REMARKS
LORDSBURG      FAIR      63  16  16 SW10      30.00S
DEMING         PTCLDY    55  22  27 NW6       30.00R
6HR MIN TEMP:  54; 6HR MAX TEMP:  80;

LAS CRUCES     CLEAR     67  13  12 S8        30.01S
HOLLOMAN AFB   CLEAR     62  12  14 S6        29.96F
ALAMOGORDO     CLEAR     61  10  13 SE9       29.97F
T OR C         CLEAR     59  12  15 SW5       29.99S
6HR MIN TEMP:  56; 6HR MAX TEMP:  78;


$$
NMZ519>523-250700-
CENTRAL VALLEYS/CENTRAL HIGHLANDS

CITY           SKY/WX    TMP DP  RH WIND       PRES   REMARKS
ALBUQUERQUE    CLEAR     56   8  14 E3        30.02S
6HR MIN TEMP:  56; 6HR MAX TEMP:  70;

DOUBLE EAGLE   CLEAR     44   3  18 N8        30.04F
MORIARTY ARPT  FAIR      35   8  32 CALM      30.08F
6HR MIN TEMP:  33; 6HR MAX TEMP:  67;

CLINES CORNERS CLEAR     48   6  18 W3        30.09F
6HR MIN TEMP:  44; 6HR MAX TEMP:  64;

BELEN          FAIR      52   8  17 NW6       30.01S
6HR MIN TEMP:  52; 6HR MAX TEMP:  70;

SOCORRO        FAIR      54  15  21 S5        29.98F
6HR MIN TEMP:  54; 6HR MAX TEMP:  75;


$$
NMZ524>526-539-540-250700-
SOUTHCENTRAL MOUNTAINS

CITY           SKY/WX    TMP DP  RH WIND       PRES   REMARKS
RUIDOSO        CLEAR     48   5  17 S6        30.13S

$$
NMZ527>531-250700-
NORTHEAST HIGHLANDS/NORTHEAST PLAINS

CITY           SKY/WX    TMP DP  RH WIND       PRES   REMARKS
LAS VEGAS      CLEAR     41  -8  12 SW10      30.07F
6HR MIN TEMP:  40; 6HR MAX TEMP:  64;

RATON          CLEAR     52  -2  11 W12       30.00R
6HR MIN TEMP:  49; 6HR MAX TEMP:  70;

CLAYTON        PTCLDY    49  19  30 S14       29.95F
6HR MIN TEMP:  49; 6HR MAX TEMP:  67;


$$
NMZ532>537-250700-
EASTCENTRAL PLAINS

CITY           SKY/WX    TMP DP  RH WIND       PRES   REMARKS
TUCUMCARI      CLEAR     59  21  23 SW16      29.95F
6HR MIN TEMP:  54; 6HR MAX TEMP:  75;

CANNON AFB     CLEAR     53  24  32 S7        30.01R
6HR MIN TEMP:  53; 6HR MAX TEMP:  70;

CLOVIS AIRPORT CLEAR     50  25  37 S7        30.04S

$$
NMZ028-029-538-250700-
SOUTHEAST PLAINS

CITY           SKY/WX    TMP DP  RH WIND       PRES   REMARKS
ROSWELL        CLEAR     57  21  24 S9        29.96F
6HR MIN TEMP:  56; 6HR MAX TEMP:  78;

ARTESIA        CLEAR     57  23  26 SW12      29.98S
CARLSBAD       CLEAR     66  20  17 S12       29.96F
6HR MIN TEMP:  58; 6HR MAX TEMP:  79;

HOBBS          FAIR      54  23  30 S6        30.01S


$$



USA.gov is the U.S. government's official web portal to all federal, state and local government web resources and services.